Home   Weather   Fürth   Past weeks

Flag for Germany Past Weather in Fürth, Bavaria, Germany — Yesterday and Last 2 Weeks

Now
46 °F

Partly sunny.


Feels Like: 40 °F
Forecast: 33 / 43 °F
Wind: 16 mph from West

Location: Nuernberg

Current Time: Feb 23, 2017 at 10:34:24 am

Latest Report: Feb 23, 2017 at 9:50 am


Visibility: N/A

Pressure: 29.71 "Hg

Humidity: 76%

Dew Point: 39 °F

Location of FürthLocation

Past Weather in Fürth — Graph

°F

Fürth Temperature Yesterday

Maximum temperature yesterday: 50 °F (at 4:50 am)
Minimum temperature yesterday: 46 °F (at 7:20 pm)
Average temperature yesterday: 49 °F

High & Low Weather Summary for the Past Weeks

 TemperatureHumidityPressure
High57 °F (Feb 16, 3:50 pm)100% (Feb 16, 6:50 am)30.57 "Hg (Feb 16, 6:50 am)
Low25 °F (Feb 10, 5:20 am)35% (Feb 14, 3:20 pm)29.71 "Hg (Feb 23, 9:20 am)
Average38 °F80%30.23 "Hg
* Reported Feb 8 9:20 am — Feb 23 9:20 am, Fürth, Weather by CustomWeather, © 2017

Note: Actual official high and low records may vary slightly from our data, if they occured in-between our weather recording intervals... More about our weather records

Advertising

Fürth Weather History for the Previous 24 Hours

Scroll right to see more
 ConditionsComfort  
Time TempWeatherWind HumidityBarometerVisibility
9:20 am
Thu, Feb 23
46 °FBroken clouds.14 mph76%29.71 "HgN/A
8:50 am46 °FPartly sunny.14 mph76%29.74 "HgN/A
8:20 am46 °FOvercast.20 mph82%29.74 "HgN/A
7:50 am46 °FOvercast.18 mph82%29.74 "HgN/A
7:20 am46 °FOvercast.17 mph82%29.74 "HgN/A
6:50 am46 °FOvercast.17 mph82%29.74 "HgN/A
6:20 am46 °FOvercast.18 mph82%29.77 "HgN/A
5:50 am46 °FOvercast.20 mph82%29.77 "HgN/A
5:20 am46 °FOvercast.21 mph82%29.77 "HgN/A
4:50 am46 °FOvercast.17 mph82%29.77 "HgN/A
4:20 am46 °FDrizzle. Overcast.18 mph87%29.77 "HgN/A
3:50 am46 °FOvercast.17 mph82%29.77 "HgN/A
3:20 am46 °FDrizzle. Overcast.18 mph87%29.80 "HgN/A
2:50 am46 °FDrizzle. Overcast.21 mph87%29.80 "HgN/A
2:20 am48 °FDrizzle. Overcast.18 mph82%29.80 "HgN/A
1:50 am48 °FDrizzle. Overcast.23 mph82%29.80 "HgN/A
1:20 am48 °FDrizzle. Overcast.20 mph82%29.80 "HgN/A
12:50 am48 °FOvercast.21 mph82%29.80 "HgN/A
12:20 am48 °FPassing clouds.20 mph82%29.80 "HgN/A
11:50 pm
Wed, Feb 22
48 °FPassing clouds.20 mph82%29.80 "HgN/A
11:20 pm48 °FPassing clouds.22 mph82%29.80 "HgN/A
10:50 pm48 °FPassing clouds.21 mph76%29.80 "HgN/A
10:20 pm48 °FPassing clouds.22 mph76%29.80 "HgN/A
9:50 pm48 °FPassing clouds.21 mph76%29.80 "HgN/A
9:20 pm48 °FPassing clouds.17 mph82%29.80 "HgN/A
8:50 pm48 °FPassing clouds.20 mph82%29.80 "HgN/A
8:20 pm46 °FPassing clouds.23 mph87%29.80 "HgN/A
7:50 pm48 °FPassing clouds.22 mph82%29.80 "HgN/A
7:20 pm46 °FPassing clouds.21 mph87%29.80 "HgN/A
6:50 pm48 °FPassing clouds.18 mph82%29.80 "HgN/A
6:20 pm48 °FPassing clouds.21 mph82%29.83 "HgN/A
5:50 pm48 °FPassing clouds.20 mph82%29.83 "HgN/A
5:20 pm48 °FPartly sunny.16 mph82%29.80 "HgN/A
4:50 pm48 °FPartly sunny.17 mph82%29.83 "HgN/A
4:20 pm48 °FPartly sunny.22 mph82%29.83 "HgN/A
3:50 pm50 °FPartly sunny.22 mph76%29.83 "HgN/A
3:20 pm50 °FPartly sunny.23 mph76%29.83 "HgN/A
2:50 pm50 °FDrizzle. Partly sunny.24 mph76%29.83 "HgN/A
2:20 pm48 °FDrizzle. Partly sunny.23 mph82%29.83 "HgN/A
1:50 pm50 °FPartly sunny.24 mph76%29.83 "HgN/A
1:20 pm48 °FPartly sunny.23 mph87%29.83 "HgN/A
12:50 pm48 °FDrizzle. Broken clouds.26 mph87%29.86 "HgN/A
12:20 pm48 °FDrizzle. Broken clouds.25 mph87%29.86 "HgN/A
11:50 am50 °FPartly sunny.23 mph76%29.86 "HgN/A
11:20 am50 °FPartly sunny.23 mph82%29.86 "HgN/A
10:50 am50 °FPartly sunny.25 mph82%29.86 "HgN/A
10:20 am48 °FDrizzle. Broken clouds.24 mph94%29.86 "HgN/A
Weather by CustomWeather, © 2017

See weather overviewHow to use our weather pages